"Date Time","Temp","Baro","Humidity","Rain","Wind speed","Wind gust","Wind dir","Wind gust dir","Dew point","Wind chill","Heat index","radiation","UV"
"2021-09-23 02:00:00","12.6","1019.4","82","0","1","4","247.5","180","9.6","12.6","12.6","0","0"
"2021-09-23 02:05:00","12.6","1019.3","82","0","1","4","202.5","247.5","9.6","12.6","12.6","0","0"
"2021-09-23 02:10:00","12.7","1019.3","82","0","1","4","202.5","180","9.7","12.7","12.7","0","0"
"2021-09-23 02:15:00","12.7","1019.3","82","0","1","3","202.5","202.5","9.7","12.7","12.7","0","0"
"2021-09-23 02:20:00","12.7","1019.3","82","0","1","4","202.5","180","9.7","12.7","12.7","0","0"
"2021-09-23 02:25:00","12.7","1019.2","82","0","2","6","202.5","225","9.7","12.7","12.7","0","0"
"2021-09-23 02:30:00","12.7","1019.2","82","0","1","6","225","202.5","9.7","12.7","12.7","0","0"
"2021-09-23 02:35:00","12.6","1019.3","82","0","1","4","225","202.5","9.6","12.6","12.6","0","0"
"2021-09-23 02:40:00","12.6","1019.3","82","0","0","1","180","180","9.6","12.6","12.6","0","0"
"2021-09-23 02:45:00","12.6","1019.3","82","0","1","3","202.5","202.5","9.6","12.6","12.6","0","0"
"2021-09-23 02:50:00","12.6","1019.3","82","0","0","2","202.5","202.5","9.6","12.6","12.6","0","0"
"2021-09-23 02:55:00","12.5","1019.3","82","0","1","2","202.5","202.5","9.5","12.5","12.5","0","0"
"2021-09-23 03:00:00","12.4","1019.3","83","0","0","2","202.5","202.5","9.6","12.4","12.4","0","0"
"2021-09-23 03:05:00","12.4","1019.2","83","0","0","2","202.5","202.5","9.6","12.4","12.4","0","0"
"2021-09-23 03:10:00","12.3","1019.1","83","0","0","1","202.5","202.5","9.5","12.3","12.3","0","0"
"2021-09-23 03:15:00","12.3","1019.1","83","0","0","0","","","9.5","12.3","12.3","0","0"
"2021-09-23 03:20:00","12.2","1019","82","0","0","1","202.5","202.5","9.2","12.2","12.2","0","0"
"2021-09-23 03:25:00","12.2","1018.7","82","0","0","1","202.5","202.5","9.2","12.2","12.2","0","0"
"2021-09-23 03:30:00","12.1","1018.9","82","0","0","0","","","9.1","12.1","12.1","0","0"
"2021-09-23 03:35:00","12.1","1018.9","82","0","0","0","","","9.1","12.1","12.1","0","0"
"2021-09-23 03:40:00","12","1018.8","82","0","0","0","","","9","12","12","0","0"
"2021-09-23 03:45:00","11.9","1018.5","82","0","0","2","202.5","202.5","9","11.9","11.9","0","0"
"2021-09-23 03:50:00","11.8","1018.5","83","0","1","2","202.5","202.5","9","11.8","11.8","0","0"
"2021-09-23 03:55:00","11.8","1018.4","82","0","0","2","202.5","202.5","8.8","11.8","11.8","0","0"
"2021-09-23 04:00:00","11.7","1018.2","82","0","2","5","202.5","202.5","8.8","11.7","11.7","0","0"
"2021-09-23 04:05:00","11.7","1018.2","82","0","1","3","247.5","225","8.7","11.7","11.7","0","0"
"2021-09-23 04:10:00","11.6","1018.1","83","0","2","4","202.5","202.5","8.8","11.6","11.6","0","0"
"2021-09-23 04:15:00","11.6","1018","83","0","2","5","225","202.5","8.8","11.6","11.6","0","0"
"2021-09-23 04:20:00","11.6","1017.9","83","0","2","4","202.5","202.5","8.8","11.6","11.6","0","0"
"2021-09-23 04:25:00","11.6","1018","83","0","2","4","202.5","202.5","8.8","11.6","11.6","0","0"
"2021-09-23 04:30:00","11.5","1017.9","83","0","2","4","202.5","202.5","8.7","11.5","11.5","0","0"
"2021-09-23 04:35:00","11.5","1017.9","83","0","1","3","202.5","202.5","8.7","11.5","11.5","0","0"
"2021-09-23 04:40:00","11.5","1017.9","83","0","1","4","202.5","202.5","8.7","11.5","11.5","0","0"
"2021-09-23 04:45:00","11.5","1017.8","83","0","1","5","225","202.5","8.7","11.5","11.5","0","0"
"2021-09-23 04:50:00","11.4","1017.9","83","0","1","2","202.5","247.5","8.7","11.4","11.4","0","0"
"2021-09-23 04:55:00","11.4","1018","83","0","1","3","202.5","202.5","8.7","11.4","11.4","0","0"
"2021-09-23 05:00:00","11.4","1018","83","0","1","4","202.5","225","8.7","11.4","11.4","0","0"
"2021-09-23 05:05:00","11.4","1018","83","0","1","4","202.5","202.5","8.7","11.4","11.4","0","0"
"2021-09-23 05:10:00","11.4","1017.9","84","0","2","4","225","225","8.8","11.4","11.4","0","0"
"2021-09-23 05:15:00","11.4","1017.9","84","0","2","3","225","225","8.8","11.4","11.4","0","0"
"2021-09-23 05:20:00","11.4","1017.8","84","0","2","4","225","225","8.8","11.4","11.4","0","0"
"2021-09-23 05:25:00","11.4","1017.7","84","0","2","5","225","202.5","8.8","11.4","11.4","0","0"
"2021-09-23 05:30:00","11.5","1017.7","84","0","2","3","202.5","247.5","8.9","11.5","11.5","0","0"
"2021-09-23 05:35:00","11.5","1017.6","84","0","2","5","202.5","202.5","8.9","11.5","11.5","0","0"
"2021-09-23 05:40:00","11.6","1017.5","84","0","2","4","202.5","202.5","8.9","11.6","11.6","0","0"
"2021-09-23 05:45:00","11.6","1017.6","84","0","2","5","202.5","202.5","8.9","11.6","11.6","0","0"
"2021-09-23 05:50:00","11.6","1017.6","84","0","2","4","202.5","180","9","11.6","11.6","0","0"
"2021-09-23 05:55:00","11.6","1017.5","84","0","2","3","202.5","225","9","11.6","11.6","0","0"
"2021-09-23 06:00:00","11.7","1017.4","84","0","1","4","202.5","202.5","9.1","11.7","11.7","3","0"
"2021-09-23 06:05:00","11.7","1017.1","84","0","1","3","225","225","9.1","11.7","11.7","7","0"
"2021-09-23 06:10:00","11.7","1017.1","85","0","2","5","202.5","202.5","9.3","11.7","11.7","9","0"
"2021-09-23 06:15:00","11.7","1017","85","0","2","7","225","202.5","9.3","11.7","11.7","11","0"
"2021-09-23 06:20:00","11.8","1017","85","0","2","7","225","202.5","9.3","11.8","11.8","13","0"
"2021-09-23 06:25:00","11.8","1017","85","0","3","9","202.5","225","9.3","11.8","11.8","15","0"
"2021-09-23 06:30:00","11.8","1017","85","0","3","7","202.5","202.5","9.4","11.8","11.8","18","0"
"2021-09-23 06:35:00","11.9","1017.1","85","0","2","5","202.5","202.5","9.4","11.9","11.9","20","0"
"2021-09-23 06:40:00","11.9","1017.1","85","0","2","5","225","225","9.5","11.9","11.9","22","0"
"2021-09-23 06:45:00","12","1017","85","0","2","5","225","202.5","9.6","12","12","25","0"
"2021-09-23 06:50:00","12.1","1017","85","0","3","7","225","202.5","9.7","12.1","12.1","25","0"
"2021-09-23 06:55:00","12.2","1017","85","0","2","6","202.5","202.5","9.7","12.2","12.2","27","0"
"2021-09-23 07:00:00","12.2","1017.1","85","0","2","4","225","202.5","9.8","12.2","12.2","30","0"
"2021-09-23 07:05:00","12.3","1017.1","85","0","2","4","202.5","202.5","9.8","12.3","12.3","32","0"
"2021-09-23 07:10:00","12.4","1017.3","86","0","2","6","202.5","247.5","10.1","12.4","12.4","33","0"
"2021-09-23 07:15:00","12.4","1017.5","86","0","2","6","202.5","202.5","10.2","12.4","12.4","35","0"
"2021-09-23 07:20:00","12.6","1017.4","86","0","2","6","202.5","225","10.3","12.6","12.6","36","0"
"2021-09-23 07:25:00","12.7","1017.4","86","0","2","5","202.5","180","10.4","12.7","12.7","38","0"
"2021-09-23 07:30:00","12.7","1017.4","86","0","2","4","202.5","202.5","10.4","12.7","12.7","39","0"
"2021-09-23 07:35:00","12.8","1017.3","86","0","2","6","202.5","225","10.5","12.8","12.8","39","0"
"2021-09-23 07:40:00","12.9","1017.3","86","0","2","6","225","202.5","10.7","12.9","12.9","40","0"
"2021-09-23 07:45:00","13.1","1017.2","86","0","2","5","225","225","10.8","13.1","13.1","40","0"
"2021-09-23 07:50:00","13.1","1017.2","86","0","2","9","202.5","180","10.8","13.1","13.1","42","0"
"2021-09-23 07:55:00","13.2","1017.3","86","0","2","4","247.5","202.5","10.9","13.2","13.2","44","0"
"2021-09-23 08:00:00","13.3","1017.3","86","0","3","7","225","225","11","13.3","13.3","47","0"
"2021-09-23 08:05:00","13.4","1017.2","86","0","3","7","225","225","11.1","13.4","13.4","51","0"
"2021-09-23 08:10:00","13.6","1017.5","86","0","2","6","202.5","202.5","11.3","13.6","13.6","54","0"
"2021-09-23 08:15:00","13.7","1017.4","86","0","2","7","225","202.5","11.4","13.7","13.7","57","0"
"2021-09-23 08:20:00","13.8","1017.4","86","0","2","10","225","202.5","11.5","13.8","13.8","63","0"
"2021-09-23 08:25:00","13.9","1017.4","86","0","2","6","202.5","180","11.6","13.9","13.9","67","0"
"2021-09-23 08:30:00","14","1017.4","86","0","2","6","202.5","225","11.7","14","14","70","0"
"2021-09-23 08:35:00","14.1","1017.5","87","0","2","4","202.5","180","12","14.1","14.1","80","0"
"2021-09-23 08:40:00","14.3","1017.4","87","0","2","5","202.5","247.5","12.1","14.3","14.3","84","0"
"2021-09-23 08:45:00","14.4","1017.5","87","0","2","3","202.5","45","12.3","14.4","14.4","144","0"
"2021-09-23 08:50:00","14.9","1017.5","87","0","2","6","202.5","202.5","12.8","14.9","14.9","186","0"
"2021-09-23 08:55:00","15.1","1017.5","86","0","2","4","202.5","225","12.8","15.1","15.1","138","0"
"2021-09-23 09:00:00","15.3","1017.5","86","0","2","5","225","247.5","13","15.3","15.3","123","0"
"2021-09-23 09:05:00","15.6","1017.5","85","0","2","5","202.5","225","13","15.6","15.6","131","0"
"2021-09-23 09:10:00","15.7","1017.5","84","0","2","7","247.5","225","13","15.7","15.7","127","0"
"2021-09-23 09:15:00","15.8","1017.5","84","0","2","4","202.5","202.5","13.1","15.8","15.8","127","0"
"2021-09-23 09:20:00","15.9","1017.4","84","0","2","4","202.5","180","13.2","15.9","15.9","157","0"
"2021-09-23 09:25:00","16.1","1017.5","83","0","2","4","202.5","180","13.2","16.1","16.1","113","0"
"2021-09-23 09:30:00","16.2","1017.4","83","0","2","5","202.5","180","13.3","16.2","16.2","132","0"
"2021-09-23 09:35:00","16.3","1017.3","83","0","2","7","202.5","225","13.4","16.3","16.3","161","0"
"2021-09-23 09:40:00","16.6","1017.3","83","0","3","6","202.5","180","13.7","16.6","16.6","193","0"
"2021-09-23 09:45:00","16.7","1017.2","82","0","3","7","225","247.5","13.6","16.7","16.7","219","0"
"2021-09-23 09:50:00","16.9","1017.2","82","0","2","5","225","202.5","13.8","16.9","16.9","269","0"
"2021-09-23 09:55:00","17.2","1017.1","82","0","2","5","225","225","14.1","17.2","17.2","220","0"
"2021-09-23 10:00:00","17.4","1017.1","81","0","4","10","202.5","180","14.1","17.4","17.4","282","0"
"2021-09-23 10:05:00","17.7","1017.1","80","0","3","9","225","180","14.2","17.7","17.7","298","0"
"2021-09-23 10:10:00","17.9","1016.9","79","0","3","8","202.5","225","14.2","17.9","17.9","433","0"
"2021-09-23 10:15:00","18.3","1017","79","0","2","8","247.5","225","14.6","18.3","18.3","541","0"
"2021-09-23 10:20:00","18.6","1017","77","0","3","7","247.5","45","14.4","18.6","18.6","536","0"
"2021-09-23 10:25:00","18.8","1016.8","77","0","2","6","202.5","270","14.7","18.8","18.8","561","0"
"2021-09-23 10:30:00","19.1","1016.8","76","0","3","9","202.5","180","14.7","19.1","19.1","563","0"
"2021-09-23 10:35:00","19.1","1016.6","76","0","3","7","225","225","14.7","19.1","19.1","533","0"
"2021-09-23 10:40:00","19.2","1016.7","76","0","3","6","225","270","14.8","19.2","19.2","583","0"
"2021-09-23 10:45:00","19.2","1016.6","75","0","3","7","202.5","247.5","14.6","19.2","19.2","223","0"
"2021-09-23 10:50:00","19.1","1016.6","76","0","3","8","202.5","202.5","14.8","19.1","19.1","174","0"
"2021-09-23 10:55:00","19","1016.6","76","0","3","7","225","270","14.7","19","19","186","0"
"2021-09-23 11:00:00","19","1016.6","76","0","4","12","225","180","14.7","19","19","196","0"
"2021-09-23 11:05:00","18.9","1016.7","76","0","4","12","202.5","180","14.6","18.9","18.9","205","0"
"2021-09-23 11:10:00","19.1","1016.7","77","0","2","7","202.5","202.5","14.9","19.1","19.1","159","0"
"2021-09-23 11:15:00","19.1","1016.7","76","0","3","6","202.5","157.5","14.7","19.1","19.1","164","0"
"2021-09-23 11:20:00","19.1","1016.6","76","0","3","9","202.5","202.5","14.7","19.1","19.1","159","0"
"2021-09-23 11:25:00","19.1","1016.6","76","0","2","6","202.5","225","14.7","19.1","19.1","180","0"
"2021-09-23 11:30:00","19.1","1016.5","76","0","2","7","225","202.5","14.8","19.1","19.1","179","0"
"2021-09-23 11:35:00","19.2","1016.4","76","0","2","6","225","247.5","14.9","19.2","19.2","211","0"
"2021-09-23 11:40:00","19.4","1016.5","76","0","3","7","225","45","15","19.4","19.4","227","0"
"2021-09-23 11:45:00","19.6","1016.3","76","0","3","7","225","225","15.2","19.6","19.6","192","0"
"2021-09-23 11:50:00","19.7","1016.2","75","0","3","8","225","202.5","15.1","19.7","19.7","155","0"
"2021-09-23 11:55:00","19.8","1016.2","73","0","3","7","202.5","202.5","14.8","19.8","19.8","150","0"
"2021-09-23 12:00:00","19.8","1016.1","73","0","3","6","202.5","67.5","14.8","19.8","19.8","193","0"
"2021-09-23 12:05:00","20","1016.2","73","0","3","9","225","202.5","15","20","20","207","0"
"2021-09-23 12:10:00","20.1","1016.2","72","0","2","4","202.5","157.5","14.8","20.1","20.1","149","0"
"2021-09-23 12:15:00","20.1","1016.2","71","0","2","10","225","180","14.7","20.1","20.1","147","0"
"2021-09-23 12:20:00","20.1","1016.2","70","0","3","6","225","202.5","14.5","20.1","20.1","155","0"
"2021-09-23 12:25:00","20.2","1016.2","71","0","3","6","202.5","202.5","14.7","20.2","20.2","161","0"
"2021-09-23 12:30:00","20.3","1016.2","70","0","3","5","202.5","202.5","14.6","20.3","20.3","176","0"
"2021-09-23 12:35:00","20.5","1016.3","70","0","2","6","202.5","225","14.8","20.5","20.5","227","0"
"2021-09-23 12:40:00","20.6","1016.4","68","0","3","6","202.5","180","14.5","20.6","20.6","316","0"
"2021-09-23 12:45:00","20.8","1016.4","67","0","3","7","202.5","202.5","14.5","20.8","20.8","277","0"
"2021-09-23 12:50:00","21","1016.4","67","0","3","6","202.5","180","14.6","21","21","555","0"
"2021-09-23 12:55:00","21.2","1016.4","66","0","3","6","202.5","225","14.6","21.2","21.2","525","0"
"2021-09-23 13:00:00","21.4","1016.4","66","0","2","4","247.5","247.5","14.8","21.4","21.4","439","0"
"2021-09-23 13:05:00","21.6","1016.5","65","0","2","5","45","67.5","14.7","21.6","21.6","457","0"
"2021-09-23 13:10:00","21.7","1016.4","64","0","2","5","202.5","225","14.6","21.7","21.7","320","0"
"2021-09-23 13:15:00","21.8","1016.4","65","0","1","3","202.5","225","14.9","21.8","21.8","317","0"
"2021-09-23 13:20:00","21.8","1016.2","65","0","2","7","247.5","180","14.9","21.8","21.8","230","0"
"2021-09-23 13:25:00","21.7","1016.2","64","0","2","7","202.5","225","14.6","21.7","21.7","192","0"
"2021-09-23 13:30:00","21.6","1016.2","63","0","2","6","45","45","14.2","21.6","21.6","138","0"
"2021-09-23 13:35:00","21.4","1016.1","64","0","2","5","90","180","14.3","21.4","21.4","109","0"
"2021-09-23 13:40:00","21.3","1016.2","64","0","1","5","225","157.5","14.2","21.3","21.3","98","0"
"2021-09-23 13:45:00","21.1","1016.2","65","0","1","3","225","135","14.3","21.1","21.1","193","0"
"2021-09-23 13:50:00","21.2","1016.2","65","0","2","7","202.5","180","14.3","21.2","21.2","506","0"
"2021-09-23 13:55:00","21.2","1016.2","64","0","2","6","202.5","180","14.1","21.2","21.2","443","0"
"2021-09-23 14:00:00","21.4","1016.3","64","0","2","5","202.5","225","14.3","21.4","21.4","502","0"
"2021-09-23 14:05:00","21.7","1016.2","63","0","3","7","225","202.5","14.4","21.7","21.7","369","0"
"2021-09-23 14:10:00","21.8","1016.2","62","0","2","5","202.5","202.5","14.2","21.8","21.8","128","0"
"2021-09-23 14:15:00","21.7","1016.1","62","0","1","4","247.5","202.5","14.1","21.7","21.7","130","0"
"2021-09-23 14:20:00","21.6","1016.1","63","0","1","3","45","270","14.3","21.6","21.6","141","0"
"2021-09-23 14:25:00","21.5","1016.1","62","0","1","4","180","45","13.9","21.5","21.5","92","0"
"2021-09-23 14:30:00","21.4","1016.1","61","0","1","3","157.5","180","13.5","21.4","21.4","100","0"
"2021-09-23 14:35:00","21.3","1016","62","0","1","2","45","67.5","13.7","21.3","21.3","79","0"
"2021-09-23 14:40:00","21.3","1016","62","0","1","3","202.5","247.5","13.7","21.3","21.3","87","0"
"2021-09-23 14:45:00","21.5","1015.9","62","0","2","4","225","247.5","13.9","21.5","21.5","88","0"
"2021-09-23 14:50:00","21.8","1015.8","61","0","2","5","225","157.5","13.9","21.8","21.8","76","0"
"2021-09-23 14:55:00","21.9","1015.8","61","0","2","5","202.5","247.5","14.1","21.9","21.9","65","0"
"2021-09-23 15:00:00","22.1","1015.8","61","0","1","4","202.5","202.5","14.2","22.1","22.1","60","0"
"2021-09-23 15:05:00","22.2","1015.8","60","0","1","3","45","202.5","14","22.2","22.2","63","0"
"2021-09-23 15:10:00","22.2","1015.7","60","0","1","4","225","45","14.1","22.2","22.2","50","0"
"2021-09-23 15:15:00","22.2","1015.6","60","0","1","4","202.5","247.5","14","22.2","22.2","45","0"
"2021-09-23 15:20:00","22.1","1015.6","60","0","2","5","202.5","157.5","13.9","22.1","22.1","56","0"
"2021-09-23 15:25:00","22.1","1015.6","60","0","2","5","202.5","225","13.9","22.1","22.1","57","0"
"2021-09-23 15:30:00","22","1015.6","60","0","1","5","202.5","45","13.9","22","22","48","0"
"2021-09-23 15:35:00","21.9","1015.5","61","0","1","4","247.5","67.5","14.1","21.9","21.9","55","0"
"2021-09-23 15:40:00","21.8","1015.4","61","0","1","4","202.5","202.5","14","21.8","21.8","47","0"
"2021-09-23 15:45:00","21.8","1015.4","61","0","1","3","202.5","22.5","13.9","21.8","21.8","54","0"
"2021-09-23 15:50:00","21.7","1015.3","60","0","1","3","202.5","225","13.6","21.7","21.7","41","0"
"2021-09-23 15:55:00","21.7","1015.2","61","0","2","4","202.5","202.5","13.8","21.7","21.7","147","0"
"2021-09-23 16:00:00","21.6","1015.2","61","0","2","4","225","225","13.8","21.6","21.6","159","0"
"2021-09-23 16:05:00","21.6","1015.2","61","0","2","4","180","202.5","13.8","21.6","21.6","31","0"
"2021-09-23 16:10:00","21.7","1015.2","61","0","1","3","225","202.5","13.8","21.7","21.7","26","0"
"2021-09-23 16:15:00","21.6","1015.2","61","0","1","3","202.5","225","13.8","21.6","21.6","29","0"
"2021-09-23 16:20:00","21.6","1015.2","62","0","1","3","202.5","180","14","21.6","21.6","42","0"
"2021-09-23 16:25:00","21.6","1015.2","62","0","1","3","202.5","202.5","14","21.6","21.6","35","0"
"2021-09-23 16:30:00","21.6","1015.2","62","0","2","4","225","225","14","21.6","21.6","26","0"
"2021-09-23 16:35:00","21.6","1015","62","0","1","3","202.5","180","14","21.6","21.6","22","0"
"2021-09-23 16:40:00","21.5","1015.1","62","0","2","4","202.5","247.5","13.9","21.5","21.5","22","0"
"2021-09-23 16:45:00","21.5","1015.1","62","0","1","3","202.5","225","13.9","21.5","21.5","21","0"
"2021-09-23 16:50:00","21.4","1015.1","62","0","1","2","202.5","202.5","13.9","21.4","21.4","19","0"
"2021-09-23 16:55:00","21.4","1015","62","0","1","3","247.5","225","13.8","21.4","21.4","18","0"
"2021-09-23 17:00:00","21.3","1015","62","0","1","2","225","225","13.7","21.3","21.3","16","0"
"2021-09-23 17:05:00","21.3","1015.1","61","0","1","3","225","247.5","13.4","21.3","21.3","16","0"
"2021-09-23 17:10:00","21.2","1015.1","62","0","1","3","202.5","202.5","13.6","21.2","21.2","16","0"
"2021-09-23 17:15:00","21.1","1015.2","62","0","1","2","202.5","180","13.5","21.1","21.1","15","0"
"2021-09-23 17:20:00","21.1","1015.2","62","0","1","3","202.5","180","13.5","21.1","21.1","13","0"
"2021-09-23 17:25:00","20.9","1015.3","62","0","0","1","180","180","13.4","20.9","20.9","12","0"
"2021-09-23 17:30:00","20.9","1015.3","62","0","0","1","180","180","13.3","20.9","20.9","11","0"
"2021-09-23 17:35:00","20.8","1015.3","62","0","0","1","180","180","13.2","20.8","20.8","9","0"
"2021-09-23 17:40:00","20.7","1015.3","63","0","0","2","202.5","180","13.4","20.7","20.7","7","0"
"2021-09-23 17:45:00","20.6","1015.3","63","0","0","1","202.5","202.5","13.3","20.6","20.6","5","0"
"2021-09-23 17:50:00","20.6","1015.2","63","0","0","2","202.5","202.5","13.3","20.6","20.6","2","0"
"2021-09-23 17:55:00","20.4","1015.2","63","0","0","2","202.5","202.5","13.2","20.4","20.4","0","0"
"2021-09-23 18:00:00","20.3","1015.2","63","0","0","1","202.5","202.5","13.1","20.3","20.3","0","0"
"2021-09-23 18:05:00","20.2","1015.3","63","0","0","1","202.5","202.5","12.9","20.2","20.2","0","0"
"2021-09-23 18:10:00","20.1","1015.3","63","0","0","2","202.5","202.5","12.8","20.1","20.1","0","0"
"2021-09-23 18:15:00","20","1015.3","64","0","0","1","202.5","202.5","13","20","20","0","0"
"2021-09-23 18:20:00","19.9","1015.4","64","0","0","1","180","202.5","12.9","19.9","19.9","0","0"
"2021-09-23 18:25:00","19.8","1015.4","64","0","0","1","180","180","12.8","19.8","19.8","0","0"
"2021-09-23 18:30:00","19.6","1015.5","64","0","0","0","","","12.6","19.6","19.6","0","0"
"2021-09-23 18:35:00","19.5","1015.5","64","0","0","0","","","12.5","19.5","19.5","0","0"
"2021-09-23 18:40:00","19.4","1015.5","64","0","0","0","","","12.4","19.4","19.4","0","0"
"2021-09-23 18:45:00","19.3","1015.5","65","0","0","0","","","12.5","19.3","19.3","0","0"
"2021-09-23 18:50:00","19.2","1015.6","65","0","0","0","","","12.4","19.2","19.2","0","0"
"2021-09-23 18:55:00","19","1015.6","65","0","0","0","","","12.3","19","19","0","0"
"2021-09-23 19:00:00","18.9","1015.6","65","0","0","0","","","12.2","18.9","18.9","0","0"
"2021-09-23 19:05:00","18.8","1015.6","65","0","0","0","","","12.1","18.8","18.8","0","0"
"2021-09-23 19:10:00","18.7","1015.6","65","0","0","1","180","180","11.9","18.7","18.7","0","0"
"2021-09-23 19:15:00","18.6","1015.6","65","0","0","2","202.5","202.5","11.8","18.6","18.6","0","0"
"2021-09-23 19:20:00","18.4","1015.7","66","0","0","0","","","12","18.4","18.4","0","0"
"2021-09-23 19:25:00","18.3","1015.7","66","0","0","0","","","11.8","18.3","18.3","0","0"
"2021-09-23 19:30:00","18.2","1015.6","66","0","0","0","","","11.7","18.2","18.2","0","0"
"2021-09-23 19:35:00","18.1","1015.6","66","0","0","0","","","11.6","18.1","18.1","0","0"
"2021-09-23 19:40:00","17.9","1015.6","66","0","0","0","","","11.5","17.9","17.9","0","0"
"2021-09-23 19:45:00","17.8","1015.6","66","0","0","0","","","11.4","17.8","17.8","0","0"
"2021-09-23 19:50:00","17.7","1015.6","67","0","0","0","","","11.5","17.7","17.7","0","0"
"2021-09-23 19:55:00","17.6","1015.6","67","0","0","0","","","11.4","17.6","17.6","0","0"
"2021-09-23 20:00:00","17.5","1015.6","68","0","0","1","202.5","202.5","11.5","17.5","17.5","0","0"
"2021-09-23 20:05:00","17.4","1015.6","68","0","0","0","","","11.4","17.4","17.4","0","0"
"2021-09-23 20:10:00","17.2","1015.6","68","0","0","1","202.5","202.5","11.3","17.2","17.2","0","0"
"2021-09-23 20:15:00","17.1","1015.6","68","0","0","2","202.5","202.5","11.2","17.1","17.1","0","0"
"2021-09-23 20:20:00","17","1015.7","68","0","0","1","157.5","157.5","11","17","17","0","0"
"2021-09-23 20:25:00","16.9","1015.6","69","0","0","1","112.5","112.5","11.2","16.9","16.9","0","0"
"2021-09-23 20:30:00","16.8","1015.7","69","0","0","1","112.5","112.5","11.1","16.8","16.8","0","0"
"2021-09-23 20:35:00","16.7","1015.7","69","0","0","1","112.5","112.5","10.9","16.7","16.7","0","0"
"2021-09-23 20:40:00","16.6","1015.7","69","0","0","1","112.5","112.5","10.8","16.6","16.6","0","0"
"2021-09-23 20:45:00","16.4","1015.7","69","0","0","2","135","135","10.7","16.4","16.4","0","0"
"2021-09-23 20:50:00","16.4","1015.8","70","0","0","1","135","135","10.9","16.4","16.4","0","0"
"2021-09-23 20:55:00","16.3","1015.8","70","0","0","2","135","135","10.8","16.3","16.3","0","0"
"2021-09-23 21:00:00","16.2","1015.8","70","0","0","1","135","135","10.7","16.2","16.2","0","0"
"2021-09-23 21:05:00","16.2","1015.8","70","0","0","0","","","10.7","16.2","16.2","0","0"
"2021-09-23 21:10:00","16.1","1015.9","71","0","0","1","135","135","10.8","16.1","16.1","0","0"
"2021-09-23 21:15:00","16.1","1016","73","0","0","1","135","135","11.2","16.1","16.1","0","0"
"2021-09-23 21:20:00","16","1015.9","73","0","0","1","135","135","11.2","16","16","0","0"
"2021-09-23 21:25:00","15.9","1015.8","73","0","0","0","","","11.1","15.9","15.9","0","0"
"2021-09-23 21:30:00","15.8","1015.8","73","0","0","0","","","10.9","15.8","15.8","0","0"
"2021-09-23 21:35:00","15.7","1015.8","73","0","0","0","","","10.9","15.7","15.7","0","0"
"2021-09-23 21:40:00","15.7","1015.9","73","0","0","0","","","10.8","15.7","15.7","0","0"
"2021-09-23 21:45:00","15.6","1015.9","73","0","0","0","","","10.7","15.6","15.6","0","0"
"2021-09-23 21:50:00","15.4","1015.8","73","0","0","0","","","10.6","15.4","15.4","0","0"
"2021-09-23 21:55:00","15.3","1015.9","73","0","0","0","","","10.5","15.3","15.3","0","0"
"2021-09-23 22:00:00","15.3","1016","73","0","0","0","","","10.5","15.3","15.3","0","0"
"2021-09-23 22:05:00","15.1","1015.9","73","0","0","0","","","10.3","15.1","15.1","0","0"
"2021-09-23 22:10:00","15","1015.9","73","0","0","0","","","10.2","15","15","0","0"
"2021-09-23 22:15:00","15","1015.9","73","0","0","0","","","10.2","15","15","0","0"
"2021-09-23 22:20:00","15","1015.9","73","0","0","0","","","10.2","15","15","0","0"